RYR21YW LFOB-GMFF

Flight info

Callsign RYR21YW
Flight time N/A
Altitude 37000
Route ERIXU DCT ETAMO DCT GUERE DCT EVPOK DCT AGN DCT ANETO N860 BERUM UG850 FES
Aircraft B738/M-SDE2E3FGHIRWXY/LB1

Departure

Time 2026-05-08 18:20
Airport Beauvais-Tillé airport (LFOB)

Arrival

Time N/A
Airport Fes Saïss International Airport (GMFF)
Time Latitude Longitude Altitude Speed Heading
2026-05-08 17:58 49.45955 2.11518 349 ft 0 kts 311°
2026-05-08 18:11 49.45955 2.11519 349 ft 1 kts 312°
2026-05-08 18:11 49.45945 2.11536 359 ft 3 kts 308°
2026-05-08 18:11 49.45933 2.11561 357 ft 3 kts 297°
2026-05-08 18:11 49.45926 2.11589 357 ft 3 kts 278°
2026-05-08 18:12 49.45926 2.11617 357 ft 3 kts 239°
2026-05-08 18:12 49.45931 2.11627 360 ft 0 kts 221°
2026-05-08 18:14 49.45930 2.11627 355 ft 1 kts 221°
2026-05-08 18:15 49.45910 2.11599 354 ft 7 kts 221°
2026-05-08 18:15 49.45865 2.11538 347 ft 10 kts 221°
2026-05-08 18:15 49.45803 2.11449 346 ft 13 kts 224°
2026-05-08 18:15 49.45737 2.11356 349 ft 12 kts 221°
2026-05-08 18:16 49.45700 2.11297 345 ft 12 kts 245°
2026-05-08 18:16 49.45725 2.11185 350 ft 11 kts 302°
2026-05-08 18:16 49.45767 2.11085 353 ft 11 kts 304°
2026-05-08 18:16 49.45779 2.10985 352 ft 11 kts 224°
2026-05-08 18:17 49.45715 2.10930 353 ft 10 kts 208°
2026-05-08 18:17 49.45655 2.10876 356 ft 10 kts 225°
2026-05-08 18:17 49.45663 2.10776 359 ft 11 kts 302°
2026-05-08 18:17 49.45703 2.10683 356 ft 10 kts 303°
2026-05-08 18:18 49.45741 2.10593 362 ft 10 kts 304°
2026-05-08 18:18 49.45780 2.10507 360 ft 10 kts 311°
2026-05-08 18:18 49.45839 2.10462 360 ft 8 kts 338°
2026-05-08 18:18 49.45845 2.10418 359 ft 6 kts 227°
2026-05-08 18:19 49.45811 2.10434 365 ft 6 kts 123°
2026-05-08 18:19 49.45758 2.10559 363 ft 39 kts 123°
2026-05-08 18:19 49.45463 2.11238 346 ft 112 kts 123°
2026-05-08 18:19 49.44911 2.12493 392 ft 164 kts 124°
2026-05-08 18:20 49.44246 2.13934 1126 ft 164 kts 120°
2026-05-08 18:20 49.43973 2.15597 1864 ft 167 kts 78°
2026-05-08 18:20 49.44650 2.17040 2524 ft 178 kts 27°
2026-05-08 18:20 49.45932 2.17225 3092 ft 201 kts 351°
2026-05-08 18:21 49.47305 2.16521 3568 ft 220 kts 330°
2026-05-08 18:21 49.48326 2.14668 4002 ft 239 kts 290°
2026-05-08 18:21 49.48543 2.12091 4664 ft 249 kts 272°
2026-05-08 18:21 49.48636 2.09475 5727 ft 241 kts 275°
2026-05-08 18:22 49.48816 2.06896 6575 ft 245 kts 276°
2026-05-08 18:22 49.48868 2.04283 7302 ft 250 kts 258°
2026-05-08 18:22 49.48082 2.01877 8049 ft 253 kts 224°
2026-05-08 18:22 49.46694 2.00384 9103 ft 243 kts 212°
2026-05-08 18:23 49.45245 1.98998 9801 ft 253 kts 213°
2026-05-08 18:23 49.43665 1.97435 10045 ft 279 kts 214°
2026-05-08 18:23 49.41981 1.95755 10340 ft 302 kts 214°
2026-05-08 18:23 49.40153 1.93929 10564 ft 325 kts 213°
2026-05-08 18:24 49.38239 1.92018 11104 ft 336 kts 214°
2026-05-08 18:24 49.36276 1.90061 11920 ft 338 kts 214°
2026-05-08 18:24 49.34301 1.88093 12763 ft 340 kts 214°
2026-05-08 18:24 49.32302 1.86101 13501 ft 345 kts 213°
2026-05-08 18:25 49.30276 1.84083 14216 ft 349 kts 213°
2026-05-08 18:25 49.28233 1.82051 14920 ft 352 kts 214°
2026-05-08 18:25 49.26168 1.79999 15631 ft 355 kts 214°
2026-05-08 18:25 49.24088 1.77936 16300 ft 359 kts 214°
2026-05-08 18:26 49.21912 1.76007 16945 ft 365 kts 202°
2026-05-08 18:26 49.19429 1.75099 17622 ft 369 kts 191°
2026-05-08 18:26 49.16886 1.74461 18302 ft 372 kts 190°
2026-05-08 18:26 49.14312 1.73808 18845 ft 377 kts 191°
2026-05-08 18:27 49.11709 1.73126 19339 ft 382 kts 191°
2026-05-08 18:27 49.09966 1.72659 19673 ft 386 kts 191°
2026-05-08 18:27 49.06440 1.71699 20346 ft 391 kts 192°
2026-05-08 18:27 49.03747 1.70962 20889 ft 395 kts 192°
2026-05-08 18:28 49.00997 1.70539 21361 ft 403 kts 177°
2026-05-08 18:28 48.98266 1.71599 21842 ft 411 kts 155°
2026-05-08 18:28 48.95878 1.74008 22352 ft 416 kts 136°
2026-05-08 18:28 48.93942 1.77296 22835 ft 420 kts 130°
2026-05-08 18:29 48.92039 1.80760 23109 ft 430 kts 129°
2026-05-08 18:29 48.90116 1.84269 23584 ft 433 kts 129°
2026-05-08 18:29 48.88164 1.87770 24048 ft 435 kts 130°
2026-05-08 18:29 48.86186 1.91262 24486 ft 438 kts 130°
2026-05-08 18:30 48.84179 1.94767 24889 ft 441 kts 132°
2026-05-08 18:30 48.81818 1.97726 25222 ft 444 kts 153°
2026-05-08 18:30 48.78946 1.99415 25653 ft 442 kts 169°
2026-05-08 18:30 48.75899 1.99829 26072 ft 440 kts 184°
2026-05-08 18:31 48.72841 1.99667 26482 ft 441 kts 185°
2026-05-08 18:31 48.69756 1.99519 26845 ft 445 kts 184°
2026-05-08 18:31 48.66649 1.99450 27209 ft 448 kts 181°
2026-05-08 18:31 48.63563 2.00261 27517 ft 457 kts 161°
2026-05-08 18:32 48.60618 2.02095 27976 ft 457 kts 159°
2026-05-08 18:32 48.57679 2.03940 28385 ft 459 kts 159°
2026-05-08 18:32 48.54743 2.05743 28683 ft 462 kts 160°
2026-05-08 18:32 48.51744 2.07551 28977 ft 465 kts 160°
2026-05-08 18:33 48.48724 2.09350 29309 ft 468 kts 160°
2026-05-08 18:33 48.45683 2.11149 29629 ft 469 kts 161°
2026-05-08 18:33 48.42626 2.12955 29945 ft 472 kts 161°
2026-05-08 18:33 48.39567 2.14761 30253 ft 473 kts 161°
2026-05-08 18:34 48.36502 2.16571 30569 ft 473 kts 161°
2026-05-08 18:34 48.33429 2.18383 30790 ft 476 kts 161°
2026-05-08 18:34 48.30341 2.20202 31124 ft 476 kts 161°
2026-05-08 18:34 48.27207 2.21704 31526 ft 469 kts 171°
2026-05-08 18:35 48.24005 2.22501 31964 ft 465 kts 175°
2026-05-08 18:35 48.20805 2.23137 32319 ft 464 kts 175°
2026-05-08 18:35 48.17628 2.23784 32653 ft 463 kts 175°
2026-05-08 18:35 48.14436 2.24501 33120 ft 459 kts 174°
2026-05-08 18:36 48.11326 2.25248 33504 ft 458 kts 174°
2026-05-08 18:36 48.08142 2.26022 33797 ft 458 kts 175°
2026-05-08 18:36 48.05022 2.26516 34062 ft 456 kts 180°
2026-05-08 18:36 48.01855 2.26746 34355 ft 453 kts 181°
2026-05-08 18:37 47.98705 2.26869 34671 ft 451 kts 182°
2026-05-08 18:37 47.95578 2.26974 35063 ft 447 kts 182°
2026-05-08 18:37 47.92480 2.27096 35436 ft 444 kts 182°
2026-05-08 18:37 47.89395 2.27244 35678 ft 444 kts 181°
2026-05-08 18:38 47.86300 2.27413 35870 ft 445 kts 181°
2026-05-08 18:38 47.83208 2.27598 36114 ft 444 kts 181°
2026-05-08 18:38 47.80122 2.27792 36384 ft 443 kts 181°
2026-05-08 18:38 47.77049 2.27989 36649 ft 441 kts 181°
2026-05-08 18:39 47.74003 2.28186 37014 ft 437 kts 181°
2026-05-08 18:39 47.70952 2.28381 36970 ft 441 kts 181°
2026-05-08 18:39 47.64811 2.28770 36989 ft 440 kts 181°
2026-05-08 18:40 47.58744 2.29155 36975 ft 434 kts 181°
2026-05-08 18:40 47.52721 2.29535 36988 ft 432 kts 181°
2026-05-08 18:41 47.46718 2.29911 36981 ft 430 kts 181°
2026-05-08 18:41 47.40780 2.30283 36984 ft 429 kts 181°
2026-05-08 18:42 47.34812 2.30655 36978 ft 429 kts 180°
2026-05-08 18:42 47.28846 2.31028 36983 ft 429 kts 180°
2026-05-08 18:43 47.22865 2.31400 36977 ft 430 kts 180°
2026-05-08 18:43 47.16880 2.31772 36975 ft 430 kts 180°
2026-05-08 18:44 47.10895 2.32143 36981 ft 430 kts 180°
2026-05-08 18:44 47.04941 2.32511 36982 ft 430 kts 180°
2026-05-08 18:45 46.98950 2.32881 36987 ft 430 kts 180°
2026-05-08 18:45 46.92966 2.33249 36982 ft 430 kts 180°
2026-05-08 18:46 46.87000 2.33616 36980 ft 429 kts 180°
2026-05-08 18:46 46.81115 2.32837 36968 ft 423 kts 197°
2026-05-08 18:47 46.75441 2.30576 36973 ft 422 kts 197°
2026-05-08 18:47 46.69776 2.28324 36972 ft 421 kts 197°
2026-05-08 18:48 46.64117 2.26122 36967 ft 421 kts 197°
2026-05-08 18:48 46.58485 2.23954 36980 ft 421 kts 196°
2026-05-08 18:49 46.52826 2.21784 36967 ft 421 kts 196°
2026-05-08 18:49 46.47170 2.19619 36968 ft 420 kts 196°
2026-05-08 18:50 46.41510 2.17457 36977 ft 420 kts 196°
2026-05-08 18:50 46.35849 2.15299 36981 ft 421 kts 196°
2026-05-08 18:51 46.30184 2.13143 36978 ft 421 kts 195°
2026-05-08 18:51 46.24517 2.10991 36980 ft 421 kts 195°
2026-05-08 18:52 46.18944 2.08460 36975 ft 420 kts 206°
2026-05-08 18:52 46.14003 2.04007 36996 ft 419 kts 215°
2026-05-08 18:53 46.09282 1.99163 36983 ft 419 kts 215°
2026-05-08 18:53 46.04486 1.94286 36989 ft 420 kts 214°
2026-05-08 18:54 45.99726 1.89492 36983 ft 420 kts 214°
2026-05-08 18:54 45.94927 1.84682 36992 ft 421 kts 214°
2026-05-08 18:55 45.87706 1.77467 36991 ft 421 kts 214°
2026-05-08 18:56 45.82893 1.72670 36995 ft 422 kts 214°
2026-05-08 18:56 45.78069 1.67872 36988 ft 422 kts 214°
2026-05-08 18:57 45.73270 1.63108 36997 ft 422 kts 214°
2026-05-08 18:57 45.68436 1.58321 37003 ft 422 kts 213°
2026-05-08 18:58 45.63599 1.53540 36996 ft 422 kts 213°
2026-05-08 18:58 45.58760 1.48767 36984 ft 422 kts 213°
2026-05-08 18:59 45.53929 1.44011 36983 ft 422 kts 213°
2026-05-08 18:59 45.49072 1.39324 36965 ft 421 kts 208°
2026-05-08 19:00 45.44633 1.36603 36962 ft 418 kts 194°
2026-05-08 19:00 45.37999 1.34454 36970 ft 417 kts 192°
2026-05-08 19:01 45.32336 1.32675 36965 ft 417 kts 192°
2026-05-08 19:01 45.26702 1.30875 36960 ft 417 kts 193°
2026-05-08 19:02 45.21034 1.29048 36960 ft 417 kts 193°
2026-05-08 19:02 45.15372 1.27220 36963 ft 417 kts 193°
2026-05-08 19:03 45.10658 1.25700 36959 ft 417 kts 193°
2026-05-08 19:03 45.05001 1.23880 36959 ft 416 kts 193°
2026-05-08 19:04 44.99347 1.22065 36946 ft 416 kts 193°
2026-05-08 19:04 44.93698 1.20256 36941 ft 416 kts 193°
2026-05-08 19:05 44.88050 1.18450 36945 ft 416 kts 193°
2026-05-08 19:05 44.82412 1.16651 36937 ft 415 kts 193°
2026-05-08 19:06 44.76811 1.14868 36936 ft 415 kts 193°
2026-05-08 19:06 44.71176 1.13077 36939 ft 415 kts 193°
2026-05-08 19:07 44.65539 1.11290 36940 ft 415 kts 193°
2026-05-08 19:07 44.59905 1.09507 36937 ft 415 kts 193°
2026-05-08 19:08 44.54258 1.07723 36941 ft 415 kts 193°
2026-05-08 19:08 44.48612 1.05943 36932 ft 416 kts 193°
2026-05-08 19:09 44.42999 1.04178 36929 ft 416 kts 193°
2026-05-08 19:09 44.37350 1.02404 36939 ft 415 kts 193°
2026-05-08 19:10 44.31703 1.00634 36929 ft 416 kts 193°
2026-05-08 19:10 44.26056 0.98868 36928 ft 415 kts 193°
2026-05-08 19:11 44.20419 0.97109 36925 ft 415 kts 194°
2026-05-08 19:11 44.14774 0.95350 36929 ft 415 kts 194°
2026-05-08 19:12 44.09175 0.93609 36934 ft 415 kts 194°
2026-05-08 19:12 44.03539 0.91860 36931 ft 414 kts 194°
2026-05-08 19:13 43.97914 0.90117 36934 ft 414 kts 194°
2026-05-08 19:13 43.92296 0.88380 36935 ft 413 kts 194°
2026-05-08 19:14 43.86681 0.86681 36933 ft 413 kts 193°
2026-05-08 19:14 43.81035 0.85164 36929 ft 414 kts 193°
2026-05-08 19:15 43.75379 0.83682 36929 ft 413 kts 193°
2026-05-08 19:15 43.69726 0.82187 36942 ft 413 kts 193°
2026-05-08 19:16 43.64072 0.80681 36944 ft 413 kts 193°
2026-05-08 19:16 43.58418 0.79175 36948 ft 413 kts 194°
2026-05-08 19:17 43.52808 0.77683 36948 ft 413 kts 194°
2026-05-08 19:17 43.47161 0.76184 36963 ft 413 kts 194°
2026-05-08 19:18 43.41515 0.74688 36946 ft 413 kts 194°
2026-05-08 19:18 43.35885 0.73200 36947 ft 411 kts 194°
2026-05-08 19:19 43.30274 0.71719 36946 ft 410 kts 194°
2026-05-08 19:19 43.24675 0.70244 36959 ft 408 kts 194°
2026-05-08 19:20 43.19108 0.68781 36954 ft 407 kts 195°
2026-05-08 19:20 43.13554 0.67323 36961 ft 405 kts 195°
2026-05-08 19:21 43.08013 0.65871 36969 ft 405 kts 195°
2026-05-08 19:21 43.02482 0.64424 36974 ft 405 kts 194°
2026-05-08 19:22 42.96993 0.62992 36979 ft 404 kts 195°
2026-05-08 19:22 42.91474 0.61554 36980 ft 402 kts 195°
2026-05-08 19:23 42.85983 0.60126 37010 ft 402 kts 195°
2026-05-08 19:23 42.80477 0.58695 37010 ft 404 kts 195°
2026-05-08 19:24 42.74964 0.57266 37021 ft 402 kts 195°
2026-05-08 19:24 42.69451 0.55840 37035 ft 402 kts 195°
2026-05-08 19:25 42.63934 0.54423 37024 ft 403 kts 195°
2026-05-08 19:25 42.58419 0.53013 37018 ft 404 kts 195°
2026-05-08 19:26 42.52900 0.51603 37020 ft 404 kts 195°
2026-05-08 19:26 42.47373 0.50192 37011 ft 404 kts 195°
2026-05-08 19:27 42.41890 0.48795 37028 ft 403 kts 195°
2026-05-08 19:27 42.36369 0.47391 37015 ft 403 kts 195°
2026-05-08 19:28 42.30853 0.45983 37013 ft 403 kts 195°
2026-05-08 19:28 42.25336 0.44573 37007 ft 404 kts 195°
2026-05-08 19:29 42.19803 0.43161 37011 ft 405 kts 195°
2026-05-08 19:29 42.14251 0.41748 37008 ft 405 kts 196°
2026-05-08 19:30 42.08710 0.40340 36996 ft 406 kts 196°
2026-05-08 19:30 42.03160 0.38933 36996 ft 405 kts 196°
2026-05-08 19:31 41.97647 0.37537 37001 ft 405 kts 197°
2026-05-08 19:31 41.92119 0.36146 36990 ft 404 kts 197°
2026-05-08 19:32 41.86614 0.34764 36984 ft 401 kts 197°
2026-05-08 19:32 41.81136 0.33389 36989 ft 399 kts 197°
2026-05-08 19:33 41.75692 0.32026 36979 ft 396 kts 198°
2026-05-08 19:33 41.70287 0.30681 36985 ft 393 kts 198°
2026-05-08 19:34 41.64955 0.29362 36985 ft 391 kts 198°
2026-05-08 19:34 41.59606 0.28039 36988 ft 390 kts 198°
2026-05-08 19:35 41.54265 0.26718 36968 ft 390 kts 198°
2026-05-08 19:35 41.48936 0.25403 36986 ft 390 kts 198°
2026-05-08 19:36 41.43589 0.24085 36981 ft 391 kts 198°
2026-05-08 19:36 41.38228 0.22766 36968 ft 392 kts 198°
2026-05-08 19:37 41.32856 0.21441 36968 ft 392 kts 199°
2026-05-08 19:37 41.27506 0.20083 36972 ft 392 kts 200°
2026-05-08 19:38 41.22174 0.18755 36979 ft 391 kts 199°
2026-05-08 19:38 41.16818 0.17441 36979 ft 390 kts 199°
2026-05-08 19:39 41.11517 0.16002 36971 ft 383 kts 205°